Location: Bishop�s Knoyle
(51.0728°N, 2.1714°W)
Time: 22:57:31
(UTC+00:00)

CENTAUR R/B - Pass Details

Date: 26 January 2021
Orbit: 742 x 1446 km, 63.5° (Epoch: 07 March)

Event Time Altitude Azimuth Distance (km) Brightness Sun altitude
Rises 04:18:46 0° 153° (SSE) 3,405 5.5 -33.5°
Reaches altitude 10° 04:22:43 10° 125° (SE) 2,608 5.2 -32.9°
Maximum altitude 04:25:08 13° 101° (ESE) 2,516 5.3 -32.5°
Drops below altitude 10° 04:27:42 10° 78° (ENE) 2,802 5.8 -32.1°
Sets 04:32:18 0° 52° (NE) 3,942 6.5 -31.4°
